Regional Weather Roundup
Issued by NWS

Home | Current Version | Previous Version | Graphics & Text | Print | Product List | Glossary On
Versions: 1 2 3 4 5 6 7 8 9 10 11 12 13 14 15 16 17 18 19 20 21 22 23 24 25 26 27
000
ASUS45 KBOI 262110
RWRID

IDAHO REGIONAL WEATHER ROUNDUP
NATIONAL WEATHER SERVICE BOISE ID
200 PM MST SUN FEB 26 2017

NOTE: "FAIR" INDICATES FEW OR NO CLOUDS BELOW 12000 FEET
WITH NO SIGNIFICANT WEATHER AND/OR OBSTRUCTIONS TO VISIBILITY

IDZ012-014-262200-
SOUTHWEST IDAHO


CITY           SKY/WX    TMP DP  RH WIND       PRES   REMARKS
BOISE          CLOUDY    37  18  46 SE18      29.74F WCI  27
CALDWELL       CLOUDY    39  19  44 E15       29.74F WCI  31
MOUNTAIN HOME  CLOUDY    36  19  50 E20       29.74F WCI  26
$$

IDZ016-017-262200-
SOUTHCENTRAL IDAHO


CITY           SKY/WX    TMP DP  RH WIND       PRES   REMARKS
BURLEY         SUNNY     38  15  39 SW21      29.74F WCI  28
JEROME           N/A    N/A N/A N/A MISG      29.76F
TWIN FALLS     MOSUNNY   33  16  49 S17       29.74F WCI  22
$$

IDZ019>023-262200-
SOUTHEAST IDAHO


CITY           SKY/WX    TMP DP  RH WIND       PRES   REMARKS
IDAHO FALLS    CLOUDY    24  17  74 SW6       29.79F WCI  17
POCATELLO      MOSUNNY   30  18  60 S18G26    29.78F WCI  18
REXBURG        CLOUDY    22  13  68 CALM      29.78F
$$

IDZ006-010-011-018-031-032-262200-
CENTRAL IDAHO MOUNTAINS


CITY           SKY/WX    TMP DP  RH WIND       PRES   REMARKS
MCCALL         LGT SNOW  23  18  81 SE15      29.60F WCI  10
HAILEY         LGT SNOW  23  16  74 SE12      29.75F WCI  12
STANLEY          N/A     23   7  50 S12G17    29.61F WCI  12
SALMON         CLOUDY    30  16  55 SW10      29.67F WCI  21
CHALLIS        CLOUDY    27  14  58 S15G21    29.64F WCI  15
$$

IDZ002-004-006-007-026-262200-
NORTHERN IDAHO


CITY           SKY/WX    TMP DP  RH WIND       PRES   REMARKS
LEWISTON       CLOUDY    37  30  75 NE8       29.69F WCI  31
LOWELL           N/A     34  30  85 CALM      29.73F
COEUR D`ALENE  MIX PCPN  31  27  85 CALM      29.68F
MULLAN PASS    SNOW      18  15  88 VRB5      29.51F VSB 1/2 WCI  11
$$




USA.gov is the U.S. government's official web portal to all federal, state and local government web resources and services.